Location: Sceptre
(50.8619°N, 109.2670°W)
Time: 23:15:32
(UTC+00:00)

Envisat - Pass Details

Date: 27 January 2022
Orbit: 764 x 765 km, 98.2° (Epoch: 21 May)

Event Time Altitude Azimuth Distance (km) Brightness Sun altitude
Rises 11:59:04 0° 17° (NNE) 3,244 6.5 -28.4°
Reaches altitude 10° 12:01:26 10° 21° (NNE) 2,313 5.8 -28.0°
Maximum altitude 12:06:27 57° 101° (E) 900 3.5 -27.2°
Drops below altitude 10° 12:11:26 10° 180° (S) 2,297 5.4 -26.5°
Sets 12:13:46 0° 184° (S) 3,219 6.2 -26.1°
